Meteo pe oră la Dabrowa

Astăzi, 23 Aprilie, Vineri

Timp Temperatura Precipitaţii Vânt Presiune Umiditate
00:00 +1°C° 0 mm 4 m/s 749 mmHg 69%
01:00 +1°C° 0 mm 3 m/s 749 mmHg 73%
02:00 0°C° 0 mm 4 m/s 749 mmHg 74%
03:00 0°C° 0 mm 4 m/s 749 mmHg 76%
04:00 -1°C° 0 mm 4 m/s 749 mmHg 78%
05:00 +1°C° 0 mm 5 m/s 749 mmHg 73%
06:00 +2°C° 0 mm 5 m/s 750 mmHg 68%
07:00 +3°C° 0 mm 5 m/s 750 mmHg 63%
08:00 +5°C° 0 mm 5 m/s 750 mmHg 52%
09:00 +5°C° 0 mm 6 m/s 750 mmHg 42%
10:00 +6°C° 0 mm 7 m/s 751 mmHg 31%
11:00 +6°C° 0 mm 7 m/s 751 mmHg 30%
12:00 +7°C° 0 mm 8 m/s 751 mmHg 28%
13:00 +7°C° 0 mm 8 m/s 751 mmHg 27%
14:00 +6°C° 0 mm 7 m/s 752 mmHg 27%
15:00 +6°C° 0 mm 7 m/s 752 mmHg 27%
16:00 +6°C° 0 mm 7 m/s 752 mmHg 27%
17:00 +5°C° 0 mm 6 m/s 752 mmHg 33%
18:00 +5°C° 0 mm 5 m/s 752 mmHg 38%
19:00 +4°C° 0 mm 4 m/s 752 mmHg 43%
20:00 +3°C° 0 mm 3 m/s 753 mmHg 48%
21:00 +3°C° 0 mm 3 m/s 753 mmHg 53%
22:00 +2°C° 0 mm 3 m/s 753 mmHg 58%
23:00 +1°C° 0 mm 3 m/s 753 mmHg 62%

Mâine, 24 Aprilie, Sâmbătă

Timp Temperatura Precipitaţii Vânt Presiune Umiditate
00:00 +1°C° 0 mm 3 m/s 753 mmHg 66%
01:00 +1°C° 0 mm 2 m/s 753 mmHg 70%
02:00 +1°C° 0 mm 2 m/s 753 mmHg 73%
03:00 -1°C° 0 mm 2 m/s 752 mmHg 75%
04:00 -1°C° 0 mm 3 m/s 752 mmHg 78%
05:00 +1°C° 0 mm 3 m/s 753 mmHg 68%
06:00 +2°C° 0 mm 3 m/s 753 mmHg 59%
07:00 +4°C° 0 mm 3 m/s 753 mmHg 49%
08:00 +5°C° 0 mm 3 m/s 753 mmHg 43%
09:00 +7°C° 0 mm 3 m/s 753 mmHg 36%
10:00 +9°C° 0 mm 3 m/s 752 mmHg 30%
11:00 +8°C° 0 mm 4 m/s 752 mmHg 30%
12:00 +10°C° 0 mm 4 m/s 752 mmHg 29%
13:00 +9°C° 0 mm 5 m/s 752 mmHg 29%
14:00 +8°C° 0 mm 5 m/s 752 mmHg 31%
15:00 +7°C° 0 mm 6 m/s 752 mmHg 33%
16:00 +7°C° 0 mm 6 m/s 752 mmHg 35%
17:00 +5°C° 0 mm 5 m/s 753 mmHg 38%
18:00 +4°C° 0 mm 4 m/s 753 mmHg 40%
19:00 +2°C° 0 mm 3 m/s 753 mmHg 42%
20:00 +1°C° 0 mm 3 m/s 753 mmHg 45%
21:00 +2°C° 0 mm 2 m/s 753 mmHg 48%
22:00 +1°C° 0 mm 2 m/s 753 mmHg 50%
23:00 -1°C° 0 mm 2 m/s 753 mmHg 54%

Poimâine, 25 Aprilie, Duminică

Timp Temperatura Precipitaţii Vânt Presiune Umiditate
00:00 -1°C° 0 mm 2 m/s 753 mmHg 58%
01:00 -1°C° 0 mm 2 m/s 753 mmHg 62%
02:00 -1°C° 0 mm 2 m/s 753 mmHg 64%
03:00 -2°C° 0 mm 2 m/s 753 mmHg 66%
04:00 -2°C° 0 mm 2 m/s 753 mmHg 68%
05:00 0°C° 0 mm 3 m/s 753 mmHg 62%
06:00 +1°C° 0 mm 4 m/s 753 mmHg 55%
07:00 +3°C° 0 mm 4 m/s 753 mmHg 49%
08:00 +4°C° 0 mm 4 m/s 753 mmHg 46%
09:00 +5°C° 0 mm 5 m/s 753 mmHg 43%
10:00 +5°C° 0 mm 5 m/s 753 mmHg 40%
11:00 +6°C° 0.1 mm 5 m/s 753 mmHg 39%
12:00 +5°C° 0.1 mm 6 m/s 753 mmHg 37%
13:00 +5°C° 0.1 mm 6 m/s 752 mmHg 36%
14:00 +5°C° 0.1 mm 6 m/s 753 mmHg 37%
15:00 +4°C° 0.1 mm 6 m/s 753 mmHg 39%
16:00 +4°C° 0.1 mm 6 m/s 753 mmHg 41%
17:00 +3°C° 0 mm 5 m/s 753 mmHg 45%
18:00 +3°C° 0 mm 4 m/s 753 mmHg 49%
19:00 +2°C° 0 mm 2 m/s 753 mmHg 53%
20:00 +2°C° 0 mm 2 m/s 753 mmHg 55%
21:00 +1°C° 0 mm 2 m/s 752 mmHg 58%
22:00 -1°C° 0 mm 2 m/s 752 mmHg 60%
23:00 -1°C° 0 mm 2 m/s 752 mmHg 65%

26 Aprilie, Luni

Timp Temperatura Precipitaţii Vânt Presiune Umiditate
00:00 -2°C° 0 mm 2 m/s 752 mmHg 70%
01:00 -2°C° 0 mm 2 m/s 752 mmHg 75%
02:00 -2°C° 0 mm 2 m/s 751 mmHg 76%
03:00 -2°C° 0 mm 2 m/s 751 mmHg 78%
04:00 -2°C° 0 mm 2 m/s 751 mmHg 80%
05:00 +1°C° 0 mm 2 m/s 751 mmHg 69%
06:00 +2°C° 0 mm 2 m/s 751 mmHg 59%
07:00 +4°C° 0 mm 2 m/s 751 mmHg 48%
08:00 +4°C° 0 mm 3 m/s 751 mmHg 44%
09:00 +5°C° 0 mm 4 m/s 750 mmHg 39%
10:00 +6°C° 0 mm 4 m/s 750 mmHg 34%
11:00 +7°C° 0 mm 4 m/s 750 mmHg 34%
12:00 +7°C° 0 mm 5 m/s 750 mmHg 34%
13:00 +7°C° 0 mm 5 m/s 750 mmHg 35%
14:00 +7°C° 0 mm 5 m/s 749 mmHg 35%
15:00 +7°C° 0 mm 5 m/s 749 mmHg 35%
16:00 +7°C° 0 mm 5 m/s 749 mmHg 35%
17:00 +5°C° 0 mm 4 m/s 749 mmHg 40%
18:00 +4°C° 0 mm 3 m/s 749 mmHg 45%
19:00 +3°C° 0 mm 2 m/s 749 mmHg 50%
20:00 +3°C° 0 mm 2 m/s 749 mmHg 55%
21:00 +2°C° 0 mm 2 m/s 749 mmHg 60%
22:00 +1°C° 0 mm 2 m/s 749 mmHg 66%
23:00 +1°C° 0 mm 2 m/s 749 mmHg 71%

27 Aprilie, Marţi

Timp Temperatura Precipitaţii Vânt Presiune Umiditate
00:00 -1°C° 0 mm 2 m/s 749 mmHg 76%
01:00 -1°C° 0 mm 2 m/s 749 mmHg 82%
02:00 -1°C° 0 mm 2 m/s 748 mmHg 83%
03:00 -1°C° 0 mm 2 m/s 748 mmHg 85%
04:00 -2°C° 0 mm 2 m/s 748 mmHg 86%
05:00 +1°C° 0 mm 2 m/s 748 mmHg 77%
06:00 +3°C° 0 mm 2 m/s 748 mmHg 67%
07:00 +5°C° 0 mm 2 m/s 748 mmHg 58%
08:00 +6°C° 0 mm 2 m/s 748 mmHg 52%
09:00 +9°C° 0 mm 1 m/s 748 mmHg 46%
10:00 +11°C° 0 mm 1 m/s 748 mmHg 39%
11:00 +11°C° 0 mm 1 m/s 747 mmHg 38%
12:00 +12°C° 0 mm 1 m/s 747 mmHg 37%
13:00 +12°C° 0 mm 1 m/s 747 mmHg 36%
14:00 +12°C° 0 mm 2 m/s 746 mmHg 39%
15:00 +10°C° 0 mm 2 m/s 746 mmHg 42%
16:00 +10°C° 0 mm 3 m/s 746 mmHg 45%
17:00 +9°C° 0 mm 3 m/s 746 mmHg 54%
18:00 +7°C° 0 mm 3 m/s 746 mmHg 62%
19:00 +4°C° 0 mm 4 m/s 746 mmHg 71%
20:00 +4°C° 0 mm 3 m/s 746 mmHg 75%
21:00 +3°C° 0 mm 3 m/s 746 mmHg 78%
22:00 +3°C° 0 mm 3 m/s 745 mmHg 81%
23:00 +3°C° 0 mm 3 m/s 745 mmHg 82%

28 Aprilie, Miercuri

Timp Temperatura Precipitaţii Vânt Presiune Umiditate
00:00 +2°C° 0 mm 3 m/s 745 mmHg 84%
01:00 +2°C° 0 mm 3 m/s 744 mmHg 85%
02:00 +2°C° 0 mm 3 m/s 744 mmHg 85%
03:00 +2°C° 0 mm 3 m/s 744 mmHg 85%
04:00 +1°C° 0 mm 4 m/s 743 mmHg 85%
05:00 +3°C° 0 mm 4 m/s 743 mmHg 82%
06:00 +3°C° 0 mm 4 m/s 743 mmHg 79%
07:00 +3°C° 0 mm 5 m/s 743 mmHg 75%
08:00 +5°C° 0 mm 5 m/s 743 mmHg 73%
09:00 +5°C° 0 mm 5 m/s 743 mmHg 70%
10:00 +6°C° 0 mm 5 m/s 743 mmHg 67%
11:00 +7°C° 0 mm 5 m/s 742 mmHg 67%
12:00 +7°C° 0 mm 5 m/s 742 mmHg 67%
13:00 +7°C° 0 mm 5 m/s 742 mmHg 67%
14:00 +7°C° 0 mm 5 m/s 742 mmHg 66%
15:00 +7°C° 0 mm 5 m/s 742 mmHg 66%
16:00 +7°C° 0 mm 5 m/s 742 mmHg 65%
17:00 +5°C° 0 mm 5 m/s 742 mmHg 69%
18:00 +3°C° 0 mm 5 m/s 742 mmHg 73%
19:00 +3°C° 0 mm 4 m/s 742 mmHg 76%
20:00 +3°C° 0 mm 3 m/s 743 mmHg 80%
21:00 +2°C° 0 mm 3 m/s 743 mmHg 83%
22:00 +2°C° 0 mm 2 m/s 743 mmHg 87%
23:00 +1°C° 0 mm 2 m/s 743 mmHg 88%
Arată mai mult

Formular de consimțământ

Meteoprog și furnizorii noștri de servicii pot stoca și accesa date personale, precum cookies, identificatori de dispozitiv sau alte tehnologii similare pe dispozitivul dumneavoastră și procesa astfel de date pentru a personaliza conținutul și reclamele, dar și pentru a oferi caracteristici de social media și pentru a analiza traficul.

  • Stocarea și/sau accesarea informațiilor pe dispozitivul dumneavoastră

    Cookies, identificatori de dispozitiv sau alte informații pot fi stocate sau accesate pe dispozitiv în scopurile indicate mai sus.

  • Reclame și conținut personalizat, evaluarea reclamelor și a conținutului, informații despre audiențe și dezvoltarea produselor

    Reclamele și conținutul pot fi personalizate pe baza unui profil. Pot fi adăugate date suplimentare pentru a personaliza mai bine reclamele și conținutul. Performanța reclamelor și conținutului poate fi măsurată. Pot fi obținute informații despre utilizatorii care au văzut reclamele și conținutul. Aceste date pot fi utilizate pentru a dezvolta sau îmbunătăți experiența utilizatorilor, sistemele și software-ul.

Dând clic pe ‘Sunt de acord’, permiteți utilizarea cookie-urilor menționate, a identificatorilor de dispozitiv, balizelor web sau altor tehnologii similare. Setările pot fi modificate din browser-ul dispozitivului dumneavoastră.

În anumite scopuri, interesele legitime pot prima asupra consimțământului. Puteți citi mai multe informații în acest sens în Politica privind Confidențialitatea Datelor și Cookie.